GFSSGP_925_spd_198.txt.gz
Wind_Speed
7 13 12 15 6 7 14 17 18 21 2 12 12 9 14 11 12 3 8 3 17 23 23 21 19 20 18 19 20 19 18 18 19 20 19 17 18 16 12 13 13 11 10 10 9 9 8 6 5
12 17 11 6 8 11 13 19 17 17 16 9 6 6 7 17 22 13 14 8 14 23 18 17 19 18 18 19 21 19 19 20 20 20 20 18 16 14 12 12 11 11 10 9 8 7 6 5 5
10 13 8 5 11 14 15 12 13 9 14 4 3 3 8 7 16 8 9 7 10 21 19 17 20 18 17 19 21 21 19 21 22 21 19 17 15 14 12 11 10 10 10 8 7 6 5 4 5
9 6 6 9 17 17 21 15 8 10 9 3 4 7 5 10 8 9 6 5 4 23 23 22 20 18 16 17 21 20 20 21 23 21 19 17 14 12 11 11 10 9 9 8 6 5 5 4 5
11 6 10 13 16 19 21 19 10 6 9 7 7 4 8 14 11 8 4 3 5 24 24 20 20 19 17 16 20 22 20 21 21 22 20 16 14 12 11 10 10 10 8 7 5 5 5 3 5
7 8 11 13 17 20 17 2 3 4 11 8 2 6 9 8 11 8 9 6 4 25 24 22 20 22 19 17 20 21 21 20 22 21 20 18 15 13 11 11 9 9 8 6 5 5 4 3 6
10 10 15 16 17 19 8 6 2 6 7 13 14 8 2 13 13 8 5 9 3 28 24 20 20 22 19 18 19 23 22 20 21 20 20 18 15 14 12 11 10 9 7 5 5 5 3 3 4
8 10 17 16 16 18 5 13 9 5 9 16 14 3 5 10 10 10 9 1 10 17 22 20 21 19 18 17 20 22 23 23 22 20 19 18 16 14 13 12 11 9 7 6 5 4 3 3 3
12 9 12 17 13 18 6 5 2 5 5 14 14 16 18 23 16 11 11 5 10 16 21 22 22 21 22 17 17 20 24 24 21 20 19 18 16 15 13 12 10 9 8 6 5 5 5 4 4
6 9 16 11 10 14 17 12 8 9 10 11 15 14 16 20 17 9 10 13 11 9 22 25 29 26 24 22 20 19 21 24 25 23 22 19 16 13 13 13 13 10 8 7 6 6 7 6 6
10 12 15 18 10 12 15 15 14 14 16 15 14 12 11 13 15 11 12 14 21 15 15 20 31 32 28 26 26 23 21 21 22 22 23 22 19 13 17 15 14 11 10 10 8 8 8 7 3
8 14 15 14 10 13 14 15 17 17 17 17 17 15 12 10 12 13 15 17 22 19 15 17 14 29 27 25 26 26 25 24 24 26 23 24 19 21 19 16 15 13 15 12 14 11 8 5 3
14 15 14 11 13 13 16 17 18 20 18 17 17 15 12 12 12 15 12 16 17 2 5 15 18 25 28 24 28 27 27 29 27 27 27 25 19 21 21 20 19 14 19 11 13 10 7 3 3
15 16 16 17 17 17 15 15 15 18 16 15 11 12 13 12 13 12 6 13 15 4 10 10 14 23 22 19 28 28 29 30 29 28 27 27 23 21 22 16 16 13 14 10 6 11 9 5 7
14 17 17 20 16 11 9 16 18 22 15 5 9 13 12 11 12 11 10 9 10 11 13 15 10 17 26 25 28 29 28 27 28 29 26 26 25 20 19 15 20 12 9 7 6 6 5 5 8
19 15 14 1 8 12 15 16 14 12 2 7 12 12 11 11 10 14 14 13 11 9 13 11 13 17 28 31 23 26 26 24 28 27 29 29 26 21 21 18 19 15 12 11 10 8 9 11 8
15 10 16 17 17 17 13 17 17 17 15 13 12 14 16 15 13 15 16 16 16 14 15 15 17 20 25 38 26 26 26 26 26 29 30 31 28 20 27 19 19 14 14 12 11 9 10 11 5
15 18 17 19 18 19 20 22 19 19 20 19 18 16 15 16 12 15 14 15 19 18 23 24 20 25 25 33 38 30 30 30 29 27 30 33 31 23 28 17 20 18 14 10 9 9 9 6 5
14 16 19 19 19 20 19 18 19 19 19 20 18 15 13 14 12 12 17 20 18 19 19 20 25 22 27 27 34 33 30 32 31 32 32 33 34 25 28 16 19 19 15 14 14 11 10 7 9
16 19 19 19 17 18 20 22 22 22 20 18 16 14 14 13 11 10 15 16 15 19 19 22 23 28 27 28 32 35 36 34 33 31 34 37 36 30 29 20 18 18 15 16 15 12 10 8 8
16 14 16 19 21 19 22 24 23 16 4 11 11 10 9 10 10 9 10 13 13 20 26 25 28 30 29 31 28 32 36 27 26 33 34 39 37 32 29 24 22 19 17 19 17 14 11 10 8
12 16 19 20 18 16 19 17 21 22 15 17 13 9 8 11 10 10 7 8 17 23 25 29 29 30 30 30 28 30 30 24 26 29 33 33 35 32 29 29 19 22 19 20 18 16 12 6 11
16 15 17 23 21 21 22 12 19 6 10 3 4 3 1 5 9 9 9 11 17 23 23 31 30 30 30 29 29 29 32 28 30 37 35 30 34 32 29 27 20 22 19 16 19 16 14 10 8
16 17 21 23 20 15 16 2 15 10 15 14 6 5 6 9 8 10 10 12 19 20 22 28 30 30 26 27 29 31 34 34 30 23 29 32 31 31 29 25 23 22 18 19 21 16 13 8 11
16 15 11 8 10 7 8 9 12 18 19 5 4 6 8 13 9 10 12 4 23 37 23 17 29 28 28 26 28 32 32 32 29 25 31 25 24 27 29 27 24 21 18 16 17 16 13 11 8
15 9 6 7 13 19 22 14 9 10 13 11 7 9 5 8 11 12 11 7 21 28 20 15 20 25 26 23 26 30 32 26 29 22 28 27 25 26 28 30 26 22 17 17 16 16 15 12 10
5 11 7 10 16 16 17 19 11 19 13 15 11 10 8 11 13 13 22 27 19 7 20 19 22 19 26 25 24 29 30 23 26 24 25 28 29 27 32 28 25 21 20 20 19 17 15 15 13
17 16 11 7 6 14 13 22 17 6 17 12 12 10 14 8 10 7 6 21 23 26 10 18 20 20 28 26 23 25 28 27 30 23 43 28 24 26 31 31 29 23 22 22 22 20 17 17 15
14 9 13 5 8 12 16 10 14 23 18 8 10 10 11 13 10 8 7 5 28 33 18 21 22 25 23 28 25 23 28 28 27 29 32 28 30 27 32 35 28 28 24 23 21 21 20 19 16
21 18 13 4 12 11 13 23 20 8 15 13 13 14 14 13 16 14 15 14 17 22 17 21 19 25 23 33 30 27 28 31 27 32 35 29 30 34 30 30 32 27 26 26 24 23 21 19 18

GFSSGP_925_spd_201.txt.gz
Wind_Speed
10 7 14 6 4 4 5 9 16 17 3 3 7 10 20 15 7 7 3 17 27 34 28 23 20 19 19 20 18 18 18 18 20 20 19 20 19 17 13 13 11 9 9 10 10 10 7 5 6
7 11 4 2 3 1 6 10 11 9 4 5 8 8 22 16 15 5 7 27 26 31 28 24 20 19 19 19 19 18 19 20 20 20 18 19 18 16 12 11 10 9 9 9 9 7 6 5 5
6 3 2 4 3 6 5 5 3 6 10 8 5 5 7 7 9 4 18 25 24 27 26 25 22 19 19 19 19 18 19 20 21 20 19 17 16 13 12 9 9 8 7 7 7 6 4 5 5
3 3 4 1 8 12 13 16 6 4 7 5 4 7 6 14 6 10 9 22 22 25 24 26 25 22 19 19 20 19 19 21 21 20 19 16 15 14 13 10 9 9 7 6 5 4 4 4 4
7 1 1 3 9 11 13 12 3 4 4 8 6 4 6 11 16 15 12 4 24 24 23 25 25 24 21 20 21 19 18 20 22 20 18 16 14 14 13 11 9 8 7 6 4 4 3 3 3
3 2 2 4 10 10 11 4 4 4 5 11 9 4 4 21 19 14 12 12 20 26 24 22 24 24 22 20 22 21 20 20 21 20 18 16 14 13 13 12 10 9 7 5 3 4 3 2 3
4 1 6 8 10 11 8 5 7 6 8 8 5 4 2 14 16 13 9 16 25 27 25 23 24 22 21 19 22 23 22 21 21 20 19 17 15 14 13 13 12 10 8 6 5 4 2 1 1
2 3 7 7 7 9 14 8 4 10 5 3 6 5 4 6 14 10 14 21 25 27 26 27 27 25 22 20 22 23 24 23 21 20 18 15 15 14 13 12 12 10 9 8 7 6 3 1 1
2 4 5 6 4 8 8 9 10 5 5 5 3 4 11 18 13 11 13 3 24 24 26 27 29 28 23 19 19 22 23 24 24 22 20 18 17 16 14 13 12 11 9 9 8 7 4 3 2
4 3 8 5 7 6 6 9 9 8 8 5 7 7 12 13 18 15 10 12 8 23 27 26 26 29 27 21 21 23 24 24 26 25 23 21 19 18 16 15 13 12 11 11 10 8 6 5 3
6 7 7 8 7 7 8 7 7 8 7 7 6 7 6 8 11 12 16 17 19 25 28 28 26 26 27 26 25 24 26 26 26 27 26 24 20 17 17 16 16 15 13 14 12 10 8 4 2
1 6 5 9 8 7 8 10 7 7 8 9 10 8 5 5 4 7 12 17 17 2 25 30 28 26 26 25 25 27 28 29 29 27 26 26 24 22 23 21 17 16 16 16 13 11 9 8 3
7 7 8 8 9 8 8 8 10 8 10 10 10 9 8 6 3 10 15 12 10 7 20 24 30 30 26 25 27 26 28 29 30 31 29 29 29 27 27 23 20 18 19 18 16 15 12 10 11
6 8 10 9 11 9 9 11 5 10 10 10 10 10 5 5 7 11 14 8 5 3 16 22 24 29 29 25 30 27 29 29 31 32 32 32 32 25 32 25 23 17 19 17 17 17 15 15 15
9 9 11 16 12 11 12 6 7 14 13 8 1 2 4 7 8 8 4 5 11 4 6 14 18 24 28 22 31 31 31 31 33 34 33 32 34 27 31 29 24 25 21 19 19 17 13 15 13
9 6 5 11 7 5 7 7 12 8 3 6 7 6 7 7 6 7 9 10 4 8 9 11 18 21 24 27 32 31 34 36 36 36 35 33 36 30 29 27 23 22 17 17 16 16 15 15 14
3 3 8 9 10 8 3 9 7 7 9 8 9 9 10 9 9 18 19 19 16 12 10 9 15 16 20 27 27 29 38 38 40 41 41 37 38 34 29 27 24 24 19 17 14 16 17 17 15
7 9 9 9 11 13 13 14 13 10 6 8 9 9 9 9 11 20 18 20 19 20 20 20 17 16 21 23 26 31 35 28 34 42 42 39 38 35 29 28 26 23 23 20 20 19 19 16 13
6 8 10 14 13 6 7 10 12 14 10 11 9 9 8 8 8 11 17 14 16 20 22 23 24 26 21 23 25 32 32 31 32 32 37 40 40 36 30 30 25 24 25 23 21 20 19 16 13
8 11 12 7 9 12 13 18 17 20 18 18 17 9 10 6 6 6 9 8 15 20 22 23 28 29 28 25 30 29 36 38 29 29 29 36 39 37 32 32 22 30 25 20 20 22 18 11 19
7 7 8 11 13 11 12 12 8 18 14 14 20 8 7 9 8 6 5 7 6 13 17 22 26 28 30 32 28 28 28 32 34 24 24 33 38 37 37 33 28 30 28 23 24 22 19 13 15
5 11 12 14 11 10 2 16 9 10 8 16 10 7 7 7 5 6 7 7 10 11 17 22 28 33 34 33 30 28 27 26 35 31 27 35 35 39 39 36 31 30 28 25 26 23 20 18 17
6 11 12 14 14 10 22 4 10 6 5 11 9 2 5 6 6 5 6 7 6 10 15 22 28 34 36 36 35 31 29 29 33 29 33 41 41 37 40 40 30 30 30 27 27 23 22 18 17
11 8 9 12 8 2 12 6 3 1 6 6 6 7 7 4 3 4 4 6 1 7 8 11 23 29 40 38 33 34 29 31 28 28 30 35 37 40 40 40 31 32 30 28 26 24 22 19 17
6 6 5 5 4 5 17 9 7 4 7 9 9 6 5 4 13 12 12 9 19 20 16 17 14 17 26 38 37 35 33 35 33 33 32 28 31 35 37 37 33 33 30 27 29 25 22 17 17
4 4 4 4 3 11 9 6 3 4 3 6 8 9 13 9 6 6 5 7 12 20 25 20 21 21 17 29 35 33 34 35 34 31 31 29 32 35 33 36 37 34 29 32 30 26 21 19 17
3 3 8 6 6 4 5 4 3 4 3 2 4 2 7 4 5 2 5 6 3 5 14 16 24 24 25 24 31 33 33 33 30 25 30 36 36 32 32 39 38 35 32 30 27 25 24 22 17
7 7 3 3 4 5 5 9 9 6 6 6 3 2 3 2 2 4 6 8 8 17 24 22 27 25 23 25 25 34 32 30 31 31 39 39 42 38 32 40 41 38 34 30 27 25 22 22 18
9 5 5 5 4 4 6 5 4 11 5 3 6 9 8 6 2 3 2 7 9 17 20 25 30 32 30 24 24 30 30 28 29 30 44 40 37 40 37 41 39 36 35 32 29 26 25 22 21
16 14 8 3 7 5 8 15 9 18 7 14 13 12 4 1 4 2 3 2 9 12 25 23 25 31 26 18 19 19 27 25 27 34 37 42 34 36 37 42 38 36 32 32 31 31 27 26 23

GFSSGP_925_spd_207.txt.gz
Wind_Speed
9 5 4 3 4 5 4 6 3 6 9 6 2 5 8 7 6 4 3 20 17 35 31 28 25 23 22 22 23 22 23 24 25 25 25 23 20 18 16 15 14 13 12 11 9 8 8 10 9
5 3 3 3 5 4 5 5 4 2 1 11 7 5 7 3 3 1 6 15 25 37 32 30 27 25 22 22 23 23 23 23 24 25 24 22 19 17 15 13 12 12 11 11 9 8 8 9 10
3 3 4 4 4 4 4 4 9 15 4 5 3 4 4 1 1 3 1 24 27 30 29 29 29 27 24 22 23 23 23 23 24 24 23 21 18 15 14 12 10 10 9 9 8 9 8 8 8
3 5 4 4 3 4 3 9 9 8 6 5 3 6 3 8 1 6 17 22 29 28 27 26 27 27 24 22 22 23 23 23 23 23 22 20 18 15 13 12 9 9 8 7 7 8 8 7 7
5 3 4 3 2 4 5 7 8 6 5 6 2 3 4 6 11 19 22 24 31 29 27 25 24 25 24 23 22 22 23 23 22 22 21 19 16 15 13 12 10 9 7 6 5 7 7 7 7
4 3 5 1 4 5 6 5 7 6 6 7 8 5 4 6 8 14 19 25 29 30 28 27 25 24 25 24 22 22 23 23 22 21 20 18 15 14 13 11 10 8 7 6 5 6 6 8 7
6 4 4 2 3 4 5 8 5 5 8 7 1 3 2 4 1 12 15 19 23 25 26 27 26 25 25 25 24 23 23 23 23 21 20 18 15 14 13 12 10 9 8 6 6 6 6 7 9
5 4 2 1 1 3 5 8 2 6 4 6 3 4 4 4 7 13 18 16 18 22 24 24 25 25 25 26 25 24 23 24 24 23 20 18 16 15 14 13 11 10 8 6 5 5 6 6 7
4 4 0 3 1 5 4 6 6 3 3 4 6 3 1 8 12 15 14 12 15 19 23 24 24 24 24 25 25 24 23 23 23 22 21 19 18 17 16 14 12 10 9 7 6 5 5 5 7
4 4 7 5 2 3 3 3 3 5 9 1 4 2 7 7 9 9 10 12 15 17 21 24 25 27 25 24 25 25 24 25 25 24 22 21 19 17 16 15 13 12 11 9 8 7 5 5 9
2 4 4 3 4 2 2 2 3 1 3 7 9 4 5 3 5 9 7 14 21 21 21 25 26 25 25 26 26 26 27 25 25 24 24 22 20 18 18 15 15 14 12 11 9 9 7 6 10
1 2 3 5 5 5 5 4 1 4 9 7 9 8 3 4 6 8 13 14 14 20 23 25 26 23 22 24 21 21 27 28 28 27 26 24 22 21 20 18 16 15 13 12 11 11 8 6 8
0 3 5 6 7 6 3 6 3 8 11 9 8 9 9 6 8 9 6 11 13 18 21 26 25 24 24 25 23 22 27 30 29 28 27 25 24 23 22 19 18 16 15 15 13 13 11 7 9
3 4 7 6 8 4 2 3 1 12 9 8 7 12 10 8 10 9 8 9 13 14 16 22 25 24 25 27 26 26 27 30 29 28 28 28 26 25 23 20 20 17 16 16 15 14 12 10 11
4 7 7 3 3 5 2 6 4 11 8 8 11 10 8 10 13 14 9 9 18 15 17 20 23 23 25 26 25 26 25 25 27 27 28 27 27 27 25 23 21 20 19 18 18 15 14 11 15
5 4 5 5 6 3 2 6 7 8 6 10 10 8 8 8 10 17 15 13 18 19 21 22 23 23 25 25 24 23 23 23 24 26 28 29 29 29 28 27 25 21 21 19 16 15 14 16 20
6 1 3 8 4 3 2 7 7 10 8 9 9 8 8 8 10 15 18 21 21 23 24 25 25 25 26 26 25 23 25 25 25 23 24 27 29 32 31 30 28 23 24 22 18 20 16 24 24
5 2 3 5 5 4 5 9 10 11 8 11 9 9 9 9 12 22 20 23 19 21 25 24 26 27 25 26 26 24 23 26 27 27 27 27 28 28 33 32 31 28 25 26 21 20 22 27 23
4 4 5 5 5 3 8 7 17 14 7 9 10 9 9 10 12 20 25 23 18 16 21 27 26 26 25 27 29 26 26 27 27 30 30 31 28 29 28 33 31 32 27 26 21 21 27 22 22
6 3 5 5 6 2 8 11 17 8 8 7 9 9 10 7 6 9 13 18 22 20 22 22 24 26 26 26 28 24 22 26 28 26 29 31 30 33 32 31 33 34 28 25 23 27 23 18 26
3 4 4 6 3 4 5 8 8 7 3 6 5 7 9 9 8 6 7 11 10 11 15 18 20 22 21 23 24 19 19 16 16 22 24 28 28 26 34 37 34 34 33 28 27 32 32 21 27
3 6 3 5 4 3 3 5 6 6 9 5 8 8 9 8 6 3 2 3 3 2 4 6 7 12 16 17 20 25 28 23 30 32 30 27 28 29 27 32 35 32 36 33 27 31 36 31 25
8 4 3 3 5 2 1 2 7 4 6 6 8 8 8 8 8 8 7 12 11 9 9 10 9 5 1 4 12 21 25 32 34 30 26 27 26 27 30 28 31 30 28 33 30 31 36 34 27
3 2 5 4 2 2 6 4 5 3 4 5 4 4 5 7 7 6 7 11 10 8 8 7 5 5 8 7 8 10 17 26 27 29 27 25 26 27 30 33 32 38 29 19 28 31 35 34 30
7 6 4 4 4 5 4 2 8 5 7 5 6 3 1 4 5 4 5 4 5 5 5 4 5 6 8 12 13 12 14 17 24 30 30 27 25 22 29 34 35 32 35 32 30 29 35 35 30
0 6 5 5 4 5 4 6 6 8 7 5 7 4 4 4 4 5 7 8 7 6 3 3 7 9 12 15 17 19 18 17 19 26 32 34 30 30 32 33 36 39 37 39 41 34 38 36 32
3 3 5 3 3 1 6 6 9 6 7 8 8 8 8 8 7 9 8 12 13 12 4 2 6 9 12 15 18 22 23 22 22 23 27 34 34 30 33 35 37 38 41 40 36 36 39 35 33
4 5 3 2 4 5 4 4 6 2 9 7 7 7 8 8 6 8 9 15 16 11 5 4 5 7 12 16 20 22 24 23 22 22 26 30 33 34 32 33 35 39 39 40 36 32 39 36 32
2 1 2 3 4 4 4 5 7 9 8 8 8 9 10 10 12 11 11 17 14 10 6 6 8 9 11 15 20 23 25 22 22 23 27 31 32 36 35 33 35 38 37 40 39 37 37 34 33
5 6 6 4 5 4 3 11 7 11 4 6 8 9 9 17 12 9 8 11 12 10 8 9 11 14 17 18 17 19 23 23 22 24 28 32 33 36 37 35 35 37 38 36 36 34 31 34 32

GFSSGP_925_spd_210.txt.gz
Wind_Speed
5 3 1 4 4 5 2 3 3 7 7 2 4 4 10 11 8 4 10 14 13 25 27 24 22 20 21 24 24 24 24 25 26 26 24 22 20 18 15 13 13 12 12 12 11 11 10 11 9
3 1 3 3 5 3 4 4 4 4 8 6 4 4 4 3 1 1 4 5 14 26 26 24 21 20 21 22 23 23 23 23 24 24 23 22 20 17 15 13 11 11 11 10 10 10 10 9 8
2 3 4 4 4 3 2 5 9 6 11 3 3 3 3 1 0 4 3 9 16 27 25 24 22 19 19 22 22 22 23 23 23 24 23 21 19 16 15 12 10 10 10 9 9 9 9 8 6
2 6 4 4 3 3 3 7 5 9 5 3 2 4 3 4 7 1 13 13 20 27 25 24 23 20 19 20 21 22 23 23 23 23 22 20 18 15 13 12 10 9 9 8 8 8 8 7 6
5 3 4 4 3 3 4 6 7 6 3 5 2 3 4 7 6 9 13 16 25 25 24 23 23 22 21 20 21 22 23 24 23 22 20 18 16 14 13 11 11 10 9 8 8 8 8 7 6
4 3 5 2 3 5 6 4 7 7 6 6 7 4 2 9 6 3 7 12 18 22 21 22 23 23 22 21 21 23 24 24 23 22 21 18 16 14 13 12 11 10 9 8 9 7 7 7 7
6 4 5 4 1 3 3 7 4 4 6 7 3 3 4 7 9 5 7 10 14 18 19 19 21 21 22 21 21 22 23 24 23 22 21 18 15 14 13 11 10 9 9 8 9 7 7 7 8
5 4 3 1 1 1 2 4 1 5 3 4 3 4 3 6 5 6 8 9 12 15 18 19 19 20 22 22 20 20 21 23 22 22 20 18 16 14 13 11 10 9 8 7 8 7 7 7 6
3 5 2 5 5 2 4 4 2 1 4 3 3 3 2 2 2 4 6 6 11 16 19 20 21 20 20 22 22 20 20 21 21 21 20 18 17 15 13 12 10 9 8 7 7 7 7 6 7
5 4 8 4 3 1 3 1 2 1 1 2 3 2 1 5 5 7 7 10 12 16 20 21 21 21 20 19 22 23 22 21 23 23 21 20 17 15 13 12 10 9 8 6 6 7 7 6 5
2 4 3 2 4 3 2 3 1 2 4 6 5 6 3 4 6 8 10 12 18 19 19 22 23 22 21 17 20 21 22 22 22 23 22 21 19 16 15 13 12 10 10 8 7 7 8 8 9
2 1 3 3 2 2 4 2 2 4 9 5 4 3 5 7 6 10 13 16 15 17 20 22 22 22 19 17 18 22 21 22 23 24 23 23 21 19 17 15 13 12 11 10 9 7 7 7 10
1 1 4 7 7 6 4 6 6 7 8 7 7 7 8 8 11 12 15 16 16 17 20 22 23 24 22 20 21 21 19 24 25 24 24 22 22 20 18 16 15 14 12 12 11 8 7 7 9
3 3 7 5 3 2 3 2 2 4 5 7 3 10 9 8 13 9 14 18 19 18 19 22 23 23 22 22 24 23 22 21 25 23 24 23 22 21 20 18 17 16 14 13 12 11 7 8 9
2 5 5 2 4 4 2 4 3 3 5 7 9 9 9 9 9 18 23 21 21 19 16 17 18 19 22 23 24 24 23 21 21 22 22 23 23 22 22 20 19 17 15 14 14 12 10 10 10
4 4 5 5 7 2 4 6 8 8 5 10 10 8 8 10 7 14 17 22 23 18 19 18 19 20 21 23 24 23 21 19 19 19 21 20 21 22 23 23 22 19 17 16 15 13 11 10 13
6 0 2 7 2 1 2 6 7 9 8 10 10 9 8 9 10 19 20 17 22 23 23 23 22 22 22 21 23 20 18 17 17 17 19 22 20 20 23 26 26 23 22 19 17 15 14 14 16
4 1 3 5 5 1 5 8 9 11 7 11 10 9 8 9 13 23 22 19 22 24 24 25 25 24 23 23 22 20 18 18 20 20 21 22 22 21 23 24 27 26 25 23 18 17 15 17 20
3 3 4 5 6 1 7 7 15 13 6 9 9 8 9 9 12 20 23 15 21 19 22 24 24 25 23 23 22 23 23 22 22 22 23 25 25 26 23 25 24 25 28 28 23 18 16 15 19
4 3 6 5 4 4 7 12 9 7 6 5 7 8 8 8 9 10 16 10 20 25 23 24 24 23 23 23 21 20 19 22 26 23 23 24 26 28 29 27 26 25 25 27 25 20 16 15 25
3 5 5 7 2 4 4 8 6 6 4 6 6 6 6 9 9 6 6 2 5 12 18 20 20 19 18 19 20 17 18 13 12 20 24 25 26 26 27 31 29 28 22 26 30 24 24 20 26
3 6 5 3 3 3 3 5 6 6 9 5 7 8 7 8 6 5 5 9 10 8 6 9 10 12 14 15 17 20 22 21 25 24 22 23 22 23 24 27 29 30 29 23 28 29 29 27 22
8 2 2 1 1 2 2 1 7 4 5 3 6 6 6 5 5 7 6 11 12 12 13 13 12 11 7 4 5 11 18 21 23 25 25 25 21 22 23 22 26 29 30 29 32 34 32 34 26
2 3 5 4 3 1 5 5 5 3 4 3 3 4 2 4 5 6 8 8 9 8 8 8 7 7 6 4 2 3 8 11 14 18 21 23 24 23 23 22 23 27 30 31 31 27 30 32 35
5 6 3 4 3 5 1 1 8 6 7 6 6 5 2 1 2 5 6 6 8 8 9 8 7 6 5 2 0 2 6 10 14 18 20 22 23 24 27 25 24 26 29 32 27 21 17 19 30
4 7 5 5 4 5 1 6 6 8 8 7 6 6 6 6 3 5 5 7 11 13 13 11 7 5 4 1 3 6 9 12 14 18 22 24 24 27 30 30 26 26 26 33 36 37 33 23 24
3 4 3 3 2 2 5 7 8 7 7 7 7 5 8 7 7 8 6 9 15 13 12 11 9 7 5 3 4 8 12 15 17 20 22 22 26 26 30 33 31 28 24 28 34 34 35 34 33
5 7 2 2 3 5 5 5 7 3 8 7 4 6 5 6 7 8 9 15 24 24 17 12 11 9 6 3 8 12 14 17 20 21 22 22 22 26 29 32 33 32 28 27 33 38 41 36 37
1 1 4 3 5 4 3 6 6 8 5 5 8 7 7 8 9 11 10 21 24 26 19 15 13 8 6 6 9 12 16 19 21 22 23 23 22 23 27 31 33 35 32 28 32 35 38 38 34
3 7 7 4 4 3 2 9 7 8 5 5 8 8 7 8 9 10 10 16 18 20 18 16 13 9 7 9 11 15 18 20 21 22 24 27 27 26 25 27 30 33 35 30 32 34 37 39 38

GFSSGP_925_spd_216.txt.gz
Wind_Speed
2 4 5 6 6 6 5 6 2 4 4 3 1 2 8 9 9 5 4 12 13 20 19 21 22 21 19 19 24 27 26 26 26 24 23 21 19 17 16 16 15 13 12 11 10 9 9 8 8
4 4 6 3 7 10 8 1 4 3 4 4 4 3 4 13 9 11 9 10 17 19 19 19 23 22 20 20 24 25 25 25 25 23 22 20 18 16 15 15 14 12 11 10 10 8 7 7 8
5 6 6 4 6 9 7 1 4 4 3 4 5 5 3 5 10 6 8 13 18 18 17 17 24 22 20 20 24 24 24 24 24 22 21 19 17 15 14 14 13 12 11 9 9 8 6 6 8
7 7 5 8 7 4 2 4 6 2 4 4 3 8 8 8 3 6 9 14 17 17 16 18 21 22 21 20 21 23 24 23 23 21 19 17 16 15 14 12 12 11 10 9 8 7 5 6 9
8 4 6 7 5 5 2 4 3 5 3 7 4 6 6 7 9 11 11 14 16 16 15 16 18 18 20 21 20 20 21 22 21 19 18 17 15 14 13 12 12 11 9 9 7 6 7 7 10
7 4 8 11 7 5 4 4 2 4 5 6 7 8 8 8 9 10 11 12 14 15 14 14 16 14 16 18 19 20 19 19 19 18 17 17 15 13 13 12 11 11 9 9 7 5 7 8 10
11 8 8 7 10 9 5 1 4 4 7 7 2 7 7 10 8 9 10 11 12 13 13 14 14 14 14 14 15 17 18 18 18 18 17 15 14 13 12 12 11 10 9 9 7 6 6 8 9
4 6 9 10 11 6 5 4 2 4 6 4 2 6 8 8 6 7 8 10 11 11 12 12 13 13 13 12 14 15 16 17 17 18 17 15 14 12 11 11 11 11 10 9 8 7 8 8 8
3 6 10 10 11 8 5 6 3 1 2 5 4 6 7 6 5 7 8 8 9 9 11 11 12 12 12 12 12 14 15 16 17 16 17 15 11 11 10 11 12 11 10 10 9 8 8 9 8
7 8 5 5 3 6 5 3 1 5 5 4 3 3 3 2 3 4 7 9 10 10 11 11 11 11 12 11 11 13 12 13 14 14 13 15 13 11 11 11 12 11 11 10 10 10 9 9 9
4 5 4 8 4 2 4 6 4 6 8 5 6 4 3 4 5 7 7 6 5 9 11 11 11 12 12 11 11 12 13 14 15 16 15 15 13 12 13 10 10 10 11 9 10 10 10 10 9
7 2 3 7 5 4 6 5 10 10 9 3 4 4 5 7 9 10 11 11 10 8 7 9 12 13 13 12 12 12 13 14 14 15 17 15 15 13 12 12 11 11 11 11 11 12 11 10 10
6 7 4 5 6 8 4 9 9 9 3 4 5 6 7 7 9 10 11 11 12 9 9 9 11 12 11 13 11 11 12 13 13 14 16 17 16 14 13 12 11 11 11 11 12 11 12 12 11
3 5 5 5 5 7 10 6 4 8 4 5 5 7 8 8 9 10 13 15 13 14 12 10 11 11 11 12 12 10 11 11 12 13 14 17 16 15 13 13 12 11 12 11 12 12 12 13 12
4 10 8 8 6 6 5 10 10 6 6 9 11 11 11 10 11 11 11 15 15 15 12 13 12 12 12 12 12 11 11 10 10 11 12 16 16 15 14 13 13 13 12 12 11 11 12 12 13
10 9 12 10 7 7 6 10 12 7 9 14 15 14 15 16 15 14 11 13 15 15 15 12 12 13 12 10 10 9 9 9 8 8 10 13 17 19 12 14 14 14 14 13 13 13 13 14 14
9 10 11 8 7 3 9 10 4 9 11 14 15 16 16 16 17 18 15 14 13 16 16 14 13 13 12 11 8 9 8 8 8 9 9 12 13 14 16 14 12 12 15 15 14 14 14 14 14
5 10 8 11 8 9 13 16 12 11 13 14 15 16 14 13 13 15 18 13 13 13 15 15 14 13 13 11 11 9 8 8 8 7 7 10 12 13 15 14 14 12 17 18 16 14 14 14 14
9 10 12 8 7 9 13 15 15 13 14 12 11 11 10 11 9 11 13 13 11 14 15 18 17 16 15 14 13 11 10 8 8 8 8 9 10 11 12 14 16 17 20 17 15 15 15 15 13
11 13 13 10 10 8 15 18 16 17 16 10 9 8 10 9 9 8 11 14 15 16 18 17 18 17 17 15 13 10 9 9 9 9 10 11 12 12 12 13 13 17 19 14 16 17 16 16 14
12 13 12 13 11 12 17 20 20 7 11 11 10 9 8 9 9 8 9 15 16 16 18 20 19 18 17 16 13 11 9 8 9 10 10 11 12 13 14 14 14 13 13 16 17 16 16 14 14
13 10 12 14 13 12 2 11 9 13 12 14 16 11 9 7 7 5 6 8 12 15 14 16 17 18 16 15 16 15 14 13 11 9 7 7 9 12 14 15 16 16 14 15 17 18 22 22 19
14 6 12 14 15 16 15 11 13 4 10 11 13 10 7 5 5 6 6 7 7 9 11 14 14 13 14 15 14 15 15 15 12 10 9 10 10 12 13 15 16 17 16 16 16 18 23 24 25
9 12 13 12 13 15 19 16 10 10 9 11 11 9 8 8 8 7 9 10 9 10 10 11 12 11 12 12 12 11 9 10 9 6 6 8 8 9 10 11 15 17 18 19 17 17 21 24 26
12 15 10 12 10 11 4 7 15 2 6 8 10 12 10 9 10 10 11 11 10 9 10 11 12 12 12 13 12 12 11 10 9 7 6 6 10 11 10 10 11 15 18 20 19 18 19 22 27
13 15 12 14 12 10 8 7 5 6 11 11 9 9 11 9 8 8 7 8 9 7 7 7 9 10 11 13 13 13 13 11 9 6 4 7 9 12 12 13 14 15 16 19 20 21 22 22 24
15 11 16 20 20 16 17 22 11 13 12 11 13 13 13 10 7 8 7 7 5 2 5 9 11 12 12 13 13 13 12 11 9 6 5 8 7 10 13 15 17 17 18 18 21 23 22 22 22
14 15 11 11 16 22 16 18 10 4 13 14 14 15 15 14 10 7 5 5 6 8 10 14 16 17 16 17 17 15 13 10 7 7 8 8 8 8 10 14 17 18 19 20 21 23 23 23 23
12 16 16 15 16 17 19 14 7 3 8 12 13 16 10 11 14 8 6 9 11 13 14 15 16 19 20 21 20 18 15 12 11 11 10 9 8 9 11 13 17 18 19 20 23 23 25 25 24
17 21 17 13 17 18 18 20 12 11 10 7 8 6 10 6 8 11 12 15 17 20 21 19 17 20 22 22 21 19 15 14 14 14 12 11 10 11 11 13 16 19 21 21 23 24 26 27 27

GFSSGP_925_spd_219.txt.gz
Wind_Speed
6 6 8 8 7 8 16 6 6 5 6 8 1 9 17 17 16 6 8 9 17 19 18 17 18 17 16 17 19 18 18 20 21 20 19 17 16 15 14 13 12 12 11 10 10 9 9 9 9
9 6 10 8 9 13 13 11 8 0 6 3 1 3 4 14 16 16 17 13 18 19 17 16 18 16 15 16 19 20 19 21 20 19 18 16 15 15 14 13 11 10 10 10 9 8 8 8 9
7 9 9 6 13 15 4 8 2 1 4 7 9 7 9 8 12 7 14 17 18 17 17 17 19 17 15 14 18 21 19 21 20 18 18 16 14 14 14 12 11 9 9 9 9 7 6 7 10
9 8 8 10 15 8 9 7 3 8 6 4 3 12 8 5 4 16 15 17 17 18 16 16 19 17 14 15 18 20 20 20 19 18 17 15 13 12 13 12 11 9 8 8 7 7 6 6 9
14 9 12 13 20 7 3 3 4 6 9 12 6 13 11 7 14 14 15 15 17 17 16 18 19 17 16 15 17 18 19 19 18 16 16 14 13 11 11 12 11 9 8 8 7 6 7 8 9
9 11 13 14 11 5 5 3 7 6 7 7 7 14 8 12 14 15 15 15 16 16 16 17 20 18 17 17 17 18 17 17 17 16 14 13 12 11 10 11 11 9 8 8 6 6 8 9 9
15 12 16 17 10 7 6 6 7 6 8 6 5 13 10 9 14 13 13 15 15 15 17 17 16 18 19 18 18 18 17 17 16 16 15 14 13 11 10 11 11 9 9 8 7 6 7 9 9
11 13 19 13 6 12 6 9 3 7 5 6 6 5 13 10 13 14 16 15 16 14 15 16 16 16 15 16 19 18 18 17 17 17 16 14 13 12 11 10 11 10 9 9 8 7 9 10 10
11 11 14 16 9 8 9 12 4 2 4 7 1 11 12 11 11 13 12 15 16 14 16 16 15 14 14 13 14 17 17 17 17 17 17 16 11 11 10 10 12 11 10 9 9 8 9 10 9
11 12 16 3 6 2 9 10 8 8 8 8 9 8 8 9 10 13 13 13 12 15 14 15 14 15 14 14 13 14 14 14 14 14 14 15 14 13 13 13 13 11 11 10 10 9 9 9 9
14 15 4 2 7 8 5 10 3 10 11 11 12 13 10 9 7 9 9 10 12 19 14 10 12 8 13 12 12 12 14 13 14 16 16 16 15 14 13 11 11 11 13 10 10 10 10 11 13
11 7 6 6 6 7 9 10 11 11 13 6 1 5 4 7 9 11 12 12 11 10 6 13 15 12 12 11 13 12 14 14 13 15 16 15 15 15 14 15 13 13 13 13 13 13 12 13 20
12 7 7 3 7 10 10 8 13 14 13 3 8 8 11 10 9 10 12 12 13 11 6 9 10 11 11 11 12 12 10 15 12 14 16 16 16 14 14 14 13 13 14 13 13 12 12 11 11
7 4 9 10 12 12 13 14 12 13 8 7 11 12 13 11 11 12 12 12 13 12 14 11 12 11 10 10 9 9 12 9 14 13 13 16 15 15 14 14 13 12 12 12 12 12 11 13 14
7 11 13 13 11 10 9 15 15 14 9 13 13 13 12 10 13 14 13 14 13 12 12 12 9 10 10 9 10 11 11 10 15 11 10 13 16 15 15 13 14 14 12 11 11 10 12 12 14
14 14 15 17 11 11 8 15 19 15 11 14 15 15 14 15 15 18 17 14 13 14 13 11 12 13 11 10 11 10 10 10 9 9 12 14 15 15 17 15 12 12 13 13 13 12 13 14 15
11 13 16 12 14 11 13 14 7 11 12 14 15 16 16 17 18 21 21 18 16 15 15 14 13 12 10 9 8 9 9 10 11 12 11 12 14 16 15 13 13 13 13 14 13 15 15 15 15
8 15 14 11 14 13 15 18 16 12 16 17 17 16 16 17 18 18 19 21 20 17 16 17 15 13 13 12 10 10 11 11 11 10 6 8 12 11 13 14 12 15 11 17 17 16 15 18 16
11 14 14 13 9 9 13 18 20 18 16 18 18 16 15 16 14 13 14 18 21 15 16 19 18 17 16 16 14 11 11 10 10 9 10 9 10 12 11 12 10 11 15 19 17 9 12 18 19
13 16 17 16 14 13 17 20 20 21 21 19 18 15 14 13 13 10 12 16 17 19 19 20 20 20 20 18 16 12 9 9 9 11 11 9 9 10 10 10 10 12 13 14 15 18 15 22 24
15 15 15 16 14 14 17 23 24 24 27 22 21 15 13 14 13 12 10 15 22 21 20 20 21 23 22 18 16 10 6 7 7 10 9 13 11 10 11 11 12 10 11 13 17 20 23 23 26
15 12 12 14 14 14 16 16 17 10 10 14 14 15 16 14 13 10 10 14 20 22 19 21 22 22 22 20 18 17 17 15 16 12 6 9 7 9 12 13 14 14 15 13 14 15 20 23 24
14 13 14 14 17 18 21 13 17 16 20 18 15 17 16 16 12 12 9 13 16 20 21 19 21 22 20 21 20 19 18 16 14 10 6 3 6 9 11 11 13 15 16 18 16 14 18 22 26
13 15 16 18 17 17 20 19 20 17 14 12 13 14 13 12 10 9 9 10 11 14 17 19 18 18 19 18 18 16 15 17 12 10 10 12 13 11 9 8 9 12 15 18 19 17 18 21 22
17 13 13 16 15 17 20 15 12 8 3 6 12 12 11 12 10 10 11 13 13 14 14 16 17 18 18 18 18 18 15 13 12 10 13 14 11 12 11 7 8 11 13 16 18 18 19 20 23
20 17 14 20 17 19 10 8 13 10 7 10 10 10 13 12 13 13 14 13 14 14 15 15 15 15 16 17 16 16 15 15 14 15 13 13 13 10 7 8 11 12 14 15 17 19 21 22 22
17 19 22 21 23 18 22 29 18 15 16 13 12 14 13 14 12 9 8 8 10 10 9 9 13 12 13 14 14 15 15 15 15 11 13 11 9 9 9 10 12 14 16 18 18 20 21 22 22
16 19 18 11 16 24 21 23 17 17 13 18 14 15 14 14 13 10 11 13 8 10 8 9 11 14 14 14 15 16 16 15 14 12 13 12 9 9 8 9 12 14 16 19 19 22 22 22 24
18 18 19 20 19 19 21 17 11 6 9 9 15 16 15 16 17 15 12 12 13 11 12 11 12 15 18 18 19 19 19 19 18 17 16 15 12 11 11 11 13 14 16 18 20 20 21 23 22
26 20 21 11 16 19 19 22 20 4 7 14 14 16 13 18 15 15 16 16 11 13 15 18 18 19 21 23 23 22 22 21 20 20 18 15 14 14 14 13 13 14 15 17 19 22 23 23 22

GFSSGP_925_spd_222.txt.gz
Wind_Speed
9 9 10 13 6 7 15 20 9 5 2 6 8 12 25 4 4 8 6 13 24 21 23 21 17 16 17 16 15 14 17 18 17 17 16 15 14 13 13 13 13 12 11 12 12 11 11 11 12
10 16 14 6 7 12 15 15 6 4 11 8 6 17 28 20 11 6 4 25 25 22 22 21 19 16 16 16 17 16 17 17 17 16 15 13 13 13 12 12 11 11 11 11 10 10 10 10 11
10 13 8 6 10 15 12 13 11 10 7 9 3 23 8 17 21 22 16 27 25 21 20 20 19 16 14 15 16 16 16 18 17 16 15 13 13 12 12 11 10 10 10 9 9 8 9 10 11
8 7 6 8 17 20 12 9 11 9 1 7 6 10 16 15 18 27 27 25 24 22 19 21 19 16 13 13 16 17 16 18 17 15 14 12 12 12 12 10 9 9 8 8 7 7 7 9 10
15 7 10 13 16 19 7 5 6 10 7 6 9 10 14 20 20 22 23 22 23 23 19 21 18 16 15 14 17 18 17 17 17 15 14 12 12 11 11 10 9 8 8 8 7 7 7 9 10
7 8 12 13 19 16 6 5 8 10 2 2 16 18 9 12 17 19 18 20 23 22 20 20 18 17 15 15 17 18 17 18 17 16 14 12 11 12 11 10 10 8 8 7 6 7 8 9 10
13 11 15 17 20 7 4 5 8 7 2 5 6 16 11 13 19 26 18 20 21 18 19 18 18 17 16 15 16 17 17 17 17 16 16 14 12 11 11 11 10 8 7 7 6 7 8 9 9
12 12 19 18 18 4 10 4 8 7 10 6 5 8 13 14 7 18 18 18 19 22 17 15 15 15 16 16 15 15 16 16 16 16 15 15 14 12 12 12 11 10 9 8 7 7 9 10 10
14 10 13 19 19 7 14 5 8 8 4 2 3 13 13 12 11 19 20 21 22 27 28 26 22 19 16 14 16 17 16 15 16 16 16 17 15 14 12 11 10 10 10 10 9 8 10 11 10
12 11 20 16 16 4 12 9 8 5 12 5 2 11 6 11 12 15 15 17 26 22 19 23 24 26 23 18 15 15 15 17 18 18 19 18 17 15 14 13 15 12 12 11 11 10 11 11 10
16 16 20 15 10 15 7 5 7 1 10 9 14 13 10 7 10 11 13 15 12 27 28 34 33 25 18 28 26 20 17 17 18 20 21 22 18 21 18 20 15 15 14 13 13 13 13 13 16
18 16 19 10 4 7 8 8 7 11 14 4 8 7 14 10 8 10 13 9 8 1 16 26 22 20 19 20 15 27 30 28 27 24 24 18 24 20 22 19 18 15 15 15 15 13 14 16 17
10 15 12 11 5 6 11 11 12 13 9 15 5 2 3 4 8 13 11 11 13 10 14 20 15 14 18 9 7 8 20 22 26 24 28 25 20 16 19 15 20 17 20 15 21 20 16 15 20
13 13 15 10 12 12 12 14 13 15 13 14 5 9 11 11 13 11 9 10 10 9 8 7 13 18 10 4 7 7 13 19 14 10 18 24 17 16 15 17 10 16 20 18 16 17 11 13 11
11 11 13 14 14 13 10 15 19 18 13 18 9 13 13 13 15 11 11 9 7 8 7 7 5 14 11 6 7 11 12 10 7 14 19 31 17 13 15 10 12 12 9 11 9 10 13 8 13
10 14 16 17 19 14 10 15 17 20 14 11 14 14 14 13 12 14 14 11 14 14 11 13 12 15 14 11 9 11 11 10 4 2 12 14 22 14 15 12 9 12 12 13 14 12 11 14 14
15 14 19 19 18 12 15 14 19 11 15 12 14 15 15 14 11 16 18 16 17 12 11 17 11 12 15 13 11 11 11 12 9 6 5 8 6 14 11 15 13 13 13 10 10 15 17 17 18
16 18 13 13 15 15 14 17 16 15 12 16 14 15 14 15 15 16 23 22 18 20 17 17 16 11 19 14 11 10 12 10 14 15 20 19 19 13 14 11 11 10 12 13 12 9 18 18 17
16 13 16 18 6 17 18 16 16 16 17 18 17 16 15 15 12 17 18 20 17 21 22 21 20 21 21 19 17 16 14 13 13 18 16 14 16 13 12 12 12 12 13 16 19 16 12 12 16
11 14 16 16 17 16 18 19 17 17 19 20 19 16 15 15 11 12 13 15 13 16 23 24 23 26 23 22 20 17 17 15 11 10 12 18 13 12 12 12 10 10 9 12 15 19 18 17 15
11 14 15 16 16 18 17 19 19 21 23 22 21 18 15 14 12 10 10 16 17 17 19 21 25 26 27 25 22 14 4 4 5 10 9 10 11 14 13 11 10 9 11 11 13 13 15 13 14
13 15 14 14 13 12 14 16 19 18 19 15 22 17 16 16 11 11 12 16 22 22 21 22 26 26 30 28 22 19 14 9 11 13 17 19 17 15 15 14 13 11 11 12 12 15 15 12 14
14 14 15 17 17 17 20 13 18 18 19 19 17 17 14 11 13 11 11 10 16 27 27 28 26 25 27 29 19 25 19 18 17 13 15 20 16 12 9 9 11 13 14 16 14 11 14 14 15
13 19 16 16 15 15 21 18 20 17 18 14 17 19 17 17 15 14 11 12 10 16 29 26 28 26 25 28 31 18 24 24 14 18 17 11 9 12 15 16 13 9 11 14 15 16 16 17 17
18 16 13 15 13 16 21 15 13 23 8 6 6 7 7 12 10 8 9 7 8 14 14 22 21 19 25 23 24 26 15 26 22 9 15 13 13 13 19 18 14 9 9 11 13 15 17 18 19
17 14 12 15 14 20 25 21 17 13 12 11 8 7 12 12 11 11 10 10 16 15 13 13 17 15 15 15 17 17 16 16 14 14 12 12 14 8 7 10 7 6 9 10 11 14 17 19 20
19 15 15 17 19 16 20 25 26 21 15 16 10 11 10 11 10 10 12 14 16 18 21 20 17 16 17 18 17 17 18 17 17 15 19 14 13 11 8 8 8 8 11 12 13 14 18 19 21
21 17 16 12 21 22 22 21 16 14 11 12 4 28 9 9 12 10 10 11 12 16 16 14 23 21 19 16 15 15 16 19 15 14 23 17 12 14 10 10 12 12 12 12 13 15 17 20 23
18 18 15 11 14 11 18 16 16 11 13 12 3 5 19 15 12 14 9 12 16 14 14 17 14 11 14 18 18 18 19 19 17 14 18 20 15 17 15 13 12 12 12 13 13 16 17 21 22
24 24 20 11 12 5 10 18 18 24 10 21 13 19 21 14 15 14 14 16 18 14 12 9 4 6 9 12 19 22 22 20 20 20 19 19 18 17 16 15 14 13 13 14 14 15 17 20 18